Home > Weather > Peshawar > Past weeks

Flag for Pakistan Past Weather in Peshawar, Pakistan — Yesterday and Last 2 Weeks

Now
75 °F

Rain. Broken clouds.


Feels Like: 74 °F
Forecast: 76 / 92 °F
Wind: 12 mph from Northeast

Location: Peshawar Airport

Current Time: Jul 27, 2016 at 12:55:51 PM

Latest Report: Jul 27, 2016 at 12:30 PM


Visibility: 2 mi

Pressure: 29.77 "Hg

Humidity: 94%

Dew Point: 73 °F

Location of PeshawarLocation

Past Weather in Peshawar — Graph

°F

Peshawar Temperature Yesterday

Maximum temperature yesterday: 100 °F (at 3:00 PM)
Minimum temperature yesterday: 84 °F (at 6:00 AM)
Average temperature yesterday: 93 °F

High & Low Weather Summary for the Past Weeks

 TemperatureHumidityPressure
High104 °F (Jul 20, 2:00 PM)94% (Jul 27, 7:00 AM)29.77 "Hg (Jul 27, 7:00 AM)
Low73 °F (Jul 27, 7:00 AM)33% (Jul 20, 2:00 PM)29.47 "Hg (Jul 23, 5:00 PM)
Average91 °F57%29.58 "Hg
* Reported Jul 12 11:00 AM — Jul 27 11:30 AM, Peshawar, Weather by CustomWeather, © 2016

Note: Actual official high and low records may vary slightly from our data, if they occured in-between our weather recording intervals... More about our weather records

Advertising

Peshawar Weather History for the Previous 24 Hours

Scroll right to see more
 ConditionsComfort  
Time TempWeatherWind HumidityBarometerVisibility
11:30 AM
Wed, Jul 27
75 °FThunderstorms. Broken clouds.16 mph94%29.77 "Hg2 mi
11:00 AM75 °FThunderstorms. Broken clouds.16 mph94%29.77 "Hg2 mi
10:30 AM75 °FThunderstorms. Broken clouds.16 mph94%29.74 "Hg2 mi
10:00 AM75 °FThunderstorms. Broken clouds.12 mph94%29.74 "Hg2 mi
9:30 AM75 °FThunderstorms. Broken clouds.12 mph89%29.71 "Hg2 mi
9:00 AM75 °FThunderstorms. Broken clouds.12 mph89%29.71 "Hg1 mi
8:30 AM75 °FThunderstorms. Broken clouds.12 mph89%29.74 "Hg1 mi
8:00 AM75 °FThunderstorms. Broken clouds.12 mph89%29.74 "Hg2 mi
7:30 AM73 °FThunderstorms. Broken clouds.14 mph94%29.68 "Hg2 mi
7:00 AM73 °FThunderstorms. Broken clouds.14 mph94%29.68 "Hg2 mi
6:30 AM81 °FThunderstorms. Broken clouds.23 mph74%29.62 "Hg2 mi
6:00 AM81 °FBroken clouds.23 mph74%29.62 "Hg1 mi
5:30 AM86 °FBroken clouds.14 mph70%29.53 "Hg2 mi
5:00 AM86 °FPartly cloudy.12 mph70%29.53 "Hg2 mi
4:30 AM86 °FThundershowers. Passing clouds.12 mph70%29.53 "Hg2 mi
3:00 AM86 °FThundershowers. Passing clouds.12 mph70%N/A2 mi
2:00 AM86 °FThundershowers. Passing clouds.12 mph70%29.53 "Hg2 mi
12:00 AM88 °FThundershowers. Passing clouds.12 mph70%29.59 "Hg2 mi
11:00 PM
Tue, Jul 26
88 °FPassing clouds.12 mph70%29.56 "Hg2 mi
10:00 PM90 °FPassing clouds.12 mph67%29.56 "Hg2 mi
9:30 PM91 °FPassing clouds.12 mph67%29.53 "Hg2 mi
9:00 PM91 °FPassing clouds.12 mph67%29.53 "Hg2 mi
8:00 PM95 °FPassing clouds.18 mph63%N/A2 mi
7:30 PM95 °FPassing clouds.18 mph63%N/A2 mi
7:00 PM95 °FScattered clouds.18 mph63%N/A2 mi
6:00 PM97 °FHaze.18 mph60%N/A2 mi
5:30 PM99 °FHaze.18 mph60%N/A2 mi
5:00 PM99 °FHaze.18 mph60%N/A2 mi
4:30 PM99 °FScattered clouds.18 mph57%29.53 "Hg2 mi
4:00 PM99 °FScattered clouds.18 mph57%29.53 "Hg2 mi
3:30 PM100 °FScattered clouds.21 mph57%29.53 "Hg2 mi
3:00 PM100 °FScattered clouds.21 mph57%29.53 "Hg2 mi
2:30 PM99 °FScattered clouds.18 mph60%29.59 "Hg2 mi
2:00 PM99 °FScattered clouds.16 mph60%29.59 "Hg2 mi
1:30 PM99 °FScattered clouds.16 mph60%29.59 "Hg2 mi
1:00 PM99 °FScattered clouds.16 mph60%29.59 "Hg2 mi
12:30 PM95 °FScattered clouds.16 mph67%29.62 "Hg2 mi
12:00 PM95 °FScattered clouds.16 mph67%29.62 "Hg2 mi
Weather by CustomWeather, © 2016

See weather overviewHow to use our weather pages